Погода в Увальном

Россия / Приморский край     45°02′56″N   133°28′24″E
темп.,
°C
ветер,
м/с
пор.,
м/с
влажн.,
%
обл.,
%
осадки,
мм/ч
давл.,
гПа
погр.,
м
2 марта, вт
вт201:00−14с2385100 0.0 102872
04:00−16с238594 0.0 102850
07:00−18ссз358541 0.0 1028122
10:00−15ссз357521 0.0 1029273
13:00−12ссз57660 0.0 1027756
16:00−11ссз46700 0.0 10271009
19:00−13сз238789 0.0 102950
22:00−15ссз119053 0.0 103120
3 марта, ср
ср301:00−16ююв11900 0.0 103120
04:00−16юв23930 0.0 103159
07:00−17юв35900 0.0 1030126
10:00−13юв47730 0.0 1029234
13:00−6ююв486290 0.0 1025529
16:00−1ююз4116694 0.0 10231503
19:00−4ююв3597100 0.7 1021134
22:00−4ююв4790100 1.2 1022196
4 марта, чт
чт401:00−3ююв41094100 0.8 1020418
04:00−4ююв379292 0.8 1019160
07:00−5ююв348949 0.0 101864
10:00−1ююв388461 0.0 1018314
13:00+4юз398894 0.0 1016700
16:00+4зюз278194 0.0 1015491
19:000зсз1289100 0.3 101522
22:00−1ю1191100 0.3 101523
5 марта, пт
пт501:00−2ююв348948 0.0 101467
04:00−1зюз398372 0.0 1015224
07:00−2зюз2497100 0.1 1017116
10:00−3сз469599 1.4 1019381
13:00−6ссз5688100 1.3 1021467
16:00−8ссз71076100 1.4 1025890
19:00−11ссз487563 0.0 1029890
22:00−12сз5127765 0.0 10331512
6 марта, сб
сб601:00−15ссз6107082 0.0 1035795
04:00−16сз497990 0.0 10371133
07:00−17сз497853 0.0 1039934
10:00−16сз467040 0.0 1040855
13:00−13зсз356148 0.0 1039980
16:00−12зсз346145 0.0 1037912
19:00−13зюз227746 0.0 103744
22:00−13юз227844 0.0 103928